When you browse on this site, cookies collect data to enhance your experience and personalize the content and advertising you see.
Visit our Privacy Policy to learn more. By continuing to use the site, you agree to this use of cookies and data.
  • en France
  • Liste des pays
  • À 7 jours
  • Température de l'eau
  • Carte satellitaire
  • Carte météo
  • Widgets météo
  • user-avatar
    Se connecter

    Météo par heure à Leighton Buzzard

    Ce jour, 16 Juin, Dimanche

    Heure Température Précipitation Vent Pression Humidité
    00:00 +8°C° 0 mm 3 m/s 752 mmHg 95%
    01:00 +8°C° 0 mm 3 m/s 752 mmHg 96%
    02:00 +8°C° 0 mm 3 m/s 752 mmHg 96%
    03:00 +7°C° 0 mm 3 m/s 752 mmHg 96%
    04:00 +9°C° 0 mm 3 m/s 752 mmHg 96%
    05:00 +10°C° 0 mm 4 m/s 752 mmHg 96%
    06:00 +11°C° 0 mm 4 m/s 752 mmHg 95%
    07:00 +12°C° 0.1 mm 5 m/s 752 mmHg 92%
    08:00 +14°C° 0.1 mm 5 m/s 753 mmHg 88%
    09:00 +15°C° 0.1 mm 6 m/s 753 mmHg 84%
    10:00 +15°C° 0.2 mm 6 m/s 753 mmHg 85%
    11:00 +15°C° 0.2 mm 6 m/s 753 mmHg 86%
    12:00 +15°C° 0.2 mm 6 m/s 753 mmHg 86%
    13:00 +15°C° 0.3 mm 7 m/s 753 mmHg 86%
    14:00 +16°C° 0.3 mm 8 m/s 753 mmHg 85%
    15:00 +16°C° 0.3 mm 9 m/s 753 mmHg 84%
    16:00 +16°C° 0.1 mm 8 m/s 753 mmHg 84%
    17:00 +15°C° 0.1 mm 7 m/s 753 mmHg 84%
    18:00 +15°C° 0.1 mm 6 m/s 753 mmHg 85%
    19:00 +14°C° 0 mm 6 m/s 754 mmHg 86%
    20:00 +13°C° 0 mm 5 m/s 754 mmHg 88%
    21:00 +12°C° 0 mm 5 m/s 754 mmHg 89%
    22:00 +10°C° 0 mm 5 m/s 754 mmHg 91%
    23:00 +10°C° 0 mm 5 m/s 754 mmHg 93%

    Demain, 17 Juin, Lundi

    Heure Température Précipitation Vent Pression Humidité
    00:00 +9°C° 0 mm 5 m/s 754 mmHg 94%
    01:00 +9°C° 0 mm 5 m/s 754 mmHg 95%
    02:00 +9°C° 0 mm 5 m/s 754 mmHg 96%
    03:00 +8°C° 0 mm 4 m/s 754 mmHg 96%
    04:00 +9°C° 0 mm 5 m/s 754 mmHg 94%
    05:00 +10°C° 0 mm 5 m/s 754 mmHg 91%
    06:00 +12°C° 0 mm 5 m/s 754 mmHg 88%
    07:00 +13°C° 0 mm 6 m/s 754 mmHg 85%
    08:00 +14°C° 0 mm 6 m/s 754 mmHg 83%
    09:00 +15°C° 0 mm 6 m/s 754 mmHg 80%
    10:00 +15°C° 0 mm 6 m/s 754 mmHg 79%
    11:00 +16°C° 0 mm 6 m/s 754 mmHg 79%
    12:00 +16°C° 0 mm 6 m/s 754 mmHg 78%
    13:00 +17°C° 0 mm 6 m/s 754 mmHg 77%
    14:00 +17°C° 0 mm 6 m/s 754 mmHg 77%
    15:00 +17°C° 0 mm 6 m/s 754 mmHg 76%
    16:00 +17°C° 0 mm 6 m/s 753 mmHg 78%
    17:00 +16°C° 0 mm 5 m/s 753 mmHg 81%
    18:00 +16°C° 0 mm 5 m/s 753 mmHg 83%
    19:00 +14°C° 0 mm 4 m/s 753 mmHg 86%
    20:00 +13°C° 0 mm 4 m/s 753 mmHg 89%
    21:00 +12°C° 0 mm 4 m/s 754 mmHg 92%
    22:00 +11°C° 0 mm 3 m/s 754 mmHg 93%
    23:00 +11°C° 0 mm 3 m/s 754 mmHg 94%

    Après-demain, 18 Juin, Mardi

    Heure Température Précipitation Vent Pression Humidité
    00:00 +10°C° 0 mm 3 m/s 754 mmHg 95%
    01:00 +10°C° 0 mm 2 m/s 753 mmHg 96%
    02:00 +10°C° 0 mm 2 m/s 753 mmHg 96%
    03:00 +9°C° 0 mm 2 m/s 753 mmHg 97%
    04:00 +10°C° 0 mm 2 m/s 753 mmHg 96%
    05:00 +12°C° 0 mm 2 m/s 753 mmHg 95%
    06:00 +13°C° 0 mm 2 m/s 753 mmHg 94%
    07:00 +14°C° 0 mm 2 m/s 753 mmHg 90%
    08:00 +15°C° 0 mm 2 m/s 753 mmHg 85%
    09:00 +17°C° 0 mm 2 m/s 753 mmHg 80%
    10:00 +18°C° 0 mm 2 m/s 753 mmHg 77%
    11:00 +19°C° 0 mm 2 m/s 753 mmHg 74%
    12:00 +20°C° 0 mm 2 m/s 752 mmHg 71%
    13:00 +20°C° 0.1 mm 2 m/s 752 mmHg 72%
    14:00 +20°C° 0.1 mm 2 m/s 752 mmHg 72%
    15:00 +21°C° 0.1 mm 1 m/s 751 mmHg 73%
    16:00 +20°C° 0.5 mm 1 m/s 751 mmHg 79%
    17:00 +17°C° 0.5 mm 2 m/s 751 mmHg 85%
    18:00 +16°C° 0.5 mm 2 m/s 751 mmHg 92%
    19:00 +16°C° 1.1 mm 2 m/s 751 mmHg 93%
    20:00 +16°C° 1.1 mm 2 m/s 750 mmHg 95%
    21:00 +15°C° 1.1 mm 2 m/s 750 mmHg 97%
    22:00 +15°C° 0.2 mm 2 m/s 750 mmHg 97%
    23:00 +15°C° 0.2 mm 2 m/s 750 mmHg 97%

    19 Juin, Mercredi

    Heure Température Précipitation Vent Pression Humidité
    00:00 +14°C° 0.2 mm 1 m/s 749 mmHg 97%
    01:00 +14°C° 0 mm 1 m/s 749 mmHg 98%
    02:00 +14°C° 0 mm 1 m/s 749 mmHg 98%
    03:00 +14°C° 0 mm 1 m/s 748 mmHg 98%
    04:00 +14°C° 0 mm 2 m/s 748 mmHg 98%
    05:00 +14°C° 0 mm 2 m/s 748 mmHg 97%
    06:00 +13°C° 0 mm 3 m/s 747 mmHg 97%
    07:00 +14°C° 0.2 mm 3 m/s 747 mmHg 96%
    08:00 +14°C° 0.2 mm 3 m/s 747 mmHg 95%
    09:00 +16°C° 0.2 mm 3 m/s 747 mmHg 95%
    10:00 +16°C° 0.2 mm 3 m/s 747 mmHg 95%
    11:00 +17°C° 0.2 mm 3 m/s 747 mmHg 95%
    12:00 +17°C° 0.2 mm 3 m/s 746 mmHg 95%
    13:00 +17°C° 1.8 mm 3 m/s 746 mmHg 96%
    14:00 +17°C° 1.8 mm 3 m/s 746 mmHg 97%
    15:00 +17°C° 1.8 mm 3 m/s 746 mmHg 97%
    16:00 +15°C° 2.7 mm 4 m/s 746 mmHg 97%
    17:00 +15°C° 2.7 mm 4 m/s 746 mmHg 97%
    18:00 +14°C° 2.7 mm 5 m/s 746 mmHg 97%
    19:00 +14°C° 0.1 mm 5 m/s 746 mmHg 96%
    20:00 +13°C° 0.1 mm 5 m/s 746 mmHg 96%
    21:00 +13°C° 0.1 mm 5 m/s 747 mmHg 96%
    22:00 +12°C° 0 mm 4 m/s 747 mmHg 96%
    23:00 +11°C° 0 mm 4 m/s 747 mmHg 96%

    20 Juin, Jeudi

    Heure Température Précipitation Vent Pression Humidité
    00:00 +10°C° 0 mm 4 m/s 748 mmHg 97%
    01:00 +10°C° 0 mm 3 m/s 748 mmHg 96%
    02:00 +9°C° 0 mm 3 m/s 748 mmHg 96%
    03:00 +8°C° 0 mm 3 m/s 749 mmHg 96%
    04:00 +9°C° 0 mm 3 m/s 749 mmHg 95%
    05:00 +9°C° 0 mm 3 m/s 749 mmHg 94%
    06:00 +10°C° 0 mm 3 m/s 750 mmHg 93%
    07:00 +12°C° 0 mm 3 m/s 750 mmHg 88%
    08:00 +13°C° 0 mm 3 m/s 750 mmHg 84%
    09:00 +16°C° 0 mm 3 m/s 751 mmHg 80%
    10:00 +17°C° 0.2 mm 3 m/s 751 mmHg 77%
    11:00 +17°C° 0.2 mm 3 m/s 751 mmHg 75%
    12:00 +17°C° 0.2 mm 3 m/s 751 mmHg 72%
    13:00 +18°C° 0.1 mm 3 m/s 751 mmHg 72%
    14:00 +18°C° 0.1 mm 3 m/s 751 mmHg 72%
    15:00 +18°C° 0.1 mm 3 m/s 751 mmHg 72%
    16:00 +17°C° 0.3 mm 3 m/s 751 mmHg 76%
    17:00 +17°C° 0.3 mm 3 m/s 751 mmHg 81%
    18:00 +16°C° 0.3 mm 3 m/s 751 mmHg 86%
    19:00 +14°C° 0.1 mm 3 m/s 751 mmHg 88%
    20:00 +12°C° 0.1 mm 3 m/s 752 mmHg 90%
    21:00 +11°C° 0.1 mm 3 m/s 752 mmHg 92%
    22:00 +10°C° 0 mm 3 m/s 752 mmHg 92%
    23:00 +10°C° 0 mm 3 m/s 752 mmHg 93%

    21 Juin, Vendredi

    Heure Température Précipitation Vent Pression Humidité
    00:00 +9°C° 0 mm 3 m/s 752 mmHg 94%
    01:00 +9°C° 0 mm 3 m/s 752 mmHg 94%
    02:00 +8°C° 0 mm 3 m/s 752 mmHg 95%
    03:00 +7°C° 0 mm 3 m/s 752 mmHg 95%
    04:00 +8°C° 0 mm 3 m/s 752 mmHg 94%
    05:00 +9°C° 0 mm 3 m/s 753 mmHg 93%
    06:00 +10°C° 0 mm 3 m/s 753 mmHg 92%
    07:00 +11°C° 0.1 mm 3 m/s 753 mmHg 88%
    08:00 +13°C° 0.1 mm 4 m/s 753 mmHg 83%
    09:00 +14°C° 0.1 mm 4 m/s 753 mmHg 78%
    10:00 +15°C° 0.4 mm 4 m/s 753 mmHg 77%
    11:00 +17°C° 0.4 mm 4 m/s 754 mmHg 76%
    12:00 +16°C° 0.4 mm 5 m/s 754 mmHg 74%
    13:00 +16°C° 0.3 mm 5 m/s 754 mmHg 73%
    14:00 +18°C° 0.3 mm 4 m/s 754 mmHg 73%
    15:00 +18°C° 0.3 mm 4 m/s 754 mmHg 72%
    16:00 +18°C° 0.1 mm 4 m/s 754 mmHg 75%
    17:00 +17°C° 0.1 mm 4 m/s 754 mmHg 78%
    18:00 +17°C° 0.1 mm 3 m/s 754 mmHg 81%
    19:00 +14°C° 0.1 mm 3 m/s 754 mmHg 84%
    20:00 +13°C° 0.1 mm 3 m/s 755 mmHg 87%
    21:00 +12°C° 0.1 mm 2 m/s 755 mmHg 90%
    22:00 +10°C° 0 mm 2 m/s 755 mmHg 91%
    23:00 +9°C° 0 mm 2 m/s 756 mmHg 91%
    Voir plus